Location: Goode (historical)
(39.9228°N, 99.4601°W)
Time: 01:56:48
(UTC+00:00)

Daily predictions for brighter satellites

Satellite Brightness Start Highest point End
(mag) Time Altitude Azimuth Time Altitude Azimuth Time Altitude Azimuth
Cosmos 2227 Rocket 2.7 00:00:07 10° N 00:05:21 37° ENE 00:10:33 10° SE
Cosmos 2297 Rocket 2.6 00:00:18 10° N 00:05:38 40° ENE 00:10:55 10° SE
Cosmos 1633 Rocket 4.4 00:03:37 10° NNE 00:06:40 18° ENE 00:09:44 10° ESE
PSLV R/B 2.5 00:04:48 10° W 00:07:20 68° N 00:09:18 15° ENE
USA 229 DEB 3.6 00:06:28 10° SSW 00:12:59 83° ESE 00:19:49 10° NE
USA 229 3.6 00:06:36 10° SSW 00:13:06 82° ESE 00:19:55 10° NE
SMAP 3.2 00:10:19 10° S 00:14:57 81° WSW 00:19:39 10° NNW
Cosmos 2084 3.4 00:10:51 10° NNW 00:15:07 63° NE 00:19:16 10° SE
COSMO-SKYMED 1 3.2 00:11:19 10° NNE 00:15:20 36° E 00:19:19 10° SSE
CZ-3 Stage 3 4.1 00:16:09 10° SSW 00:16:45 11° S 00:17:18 10° S
Cosmos 1666 Rocket 4.4 00:13:51 10° NNE 00:17:37 28° ENE 00:21:21 10° SE
NOSS 3-1 (A) 3.5 00:13:13 10° S 00:18:24 50° ESE 00:24:15 10° NE
Cosmos 2369 4.2 00:13:40 10° S 00:18:49 37° ESE 00:23:59 10° NE
NOSS 3-1 (C) 3.2 00:13:40 10° SSW 00:19:04 83° ESE 00:25:15 10° NE
Geosat 4.1 00:14:09 10° NNE 00:19:12 84° WNW 00:24:13 10° SSW
Sich 1 3.4 00:16:35 10° N 00:20:42 41° ENE 00:24:50 10° SSE
Cosmos 1680 Rocket 4.3 00:18:48 10° SSE 00:23:15 29° E 00:27:13 12° NE
Cosmos 1464 Rocket 4.2 00:17:48 10° N 00:23:39 44° ENE 00:29:26 10° SSE
Cosmos 1151 Rocket 4.2 00:21:51 10° SE 00:25:10 22° E 00:27:07 16° NE
Meteor 2-2 Rocket 4.5 00:22:05 10° SSW 00:27:58 78° W 00:33:47 10° N
Meteor 2-20 4.5 00:21:58 10° S 00:28:04 89° W 00:34:15 10° N
Cosmos 1072 Rocket 4.5 00:26:30 10° N 00:32:32 57° E 00:38:35 10° SSE
Cosmos 2082 4.1 00:27:28 10° N 00:32:41 38° ENE 00:37:53 10° SE
Cosmos 1238 Rocket 4.1 00:30:19 10° NNW 00:34:26 44° W 00:37:51 10° SSW
Cosmos 1356 Rocket 3.4 00:31:47 10° S 00:35:53 88° W 00:40:08 10° N
Cosmos 2278 4.1 00:33:35 10° S 00:38:49 40° ESE 00:42:43 17° NE
Cosmos 1697 Rocket 2.8 00:33:57 10° S 00:39:24 52° ESE 00:44:16 13° NE
SKYMED 3 4.5 00:35:08 10° NNE 00:39:28 68° ESE 00:43:47 10° S
YAOGAN 1 3.0 00:36:40 10° SE 00:40:38 38° ENE 00:44:39 10° N
Lacrosse 4 Rocket 1.2 00:39:57 10° SSW 00:44:02 67° ESE 00:46:26 23° NE
CZ-4 R/B 4.4 00:40:43 10° SSE 00:44:46 59° ENE 00:48:51 10° N
ATLAS 5 CENTAUR R/B 2.4 00:40:45 10° NNW 00:46:41 76° NE 00:53:28 10° SE
Cosmos 1607 3.9 00:40:50 10° NNW 00:47:05 85° ENE 00:53:22 10° SSE
Cosmos 923 Rocket 3.9 00:42:17 10° S 00:47:28 67° ESE 00:52:26 11° NNE
Cosmos 1633 2.4 00:44:01 10° N 00:47:39 64° E 00:51:15 10° SSE
Okean-O 3.5 00:47:56 10° S 00:52:15 52° W 00:56:36 10° NNW
USA 116 4.2 00:49:51 10° NNE 00:54:28 65° ESE 00:59:31 10° S
CZ-4 R/B 1.3 00:53:42 10° SSE 00:57:53 79° ENE 01:02:01 10° N
NOSS 2-3 (C) 3.5 00:54:08 10° SSW 00:58:21 67° ESE 01:00:18 33° NE
SKYMED 2 4.0 00:59:12 10° N 01:03:31 64° WNW 01:07:47 10° SSW
YAOGAN 6 2.7 01:01:23 10° S 01:04:52 70° W 01:08:22 10° NNW
NOAA 11 4.2 01:06:25 10° SSE 01:11:41 55° ENE 01:16:59 10° N
Cosmos 2346 Rocket 4.4 01:07:53 10° S 01:14:05 73° E 01:20:17 10° N
CSL-04 Debris 4.1 01:11:07 10° SSE 01:16:36 89° WSW 01:22:08 10° NNW
TRAILBLAZER 4.5 01:12:47 10° NNW 01:17:24 88° NE 01:18:43 47° SSE
Cosmos 2034 Rocket 4.0 01:13:40 10° N 01:20:04 88° E 01:26:27 10° S
DMSP B5D1-3 4.4 01:19:17 23° NNE 01:22:36 78° ESE 01:27:45 10° S
Meteor 2-11 Rocket 4.4 01:19:00 10° N 01:25:08 87° W 01:31:17 10° S
BREEZE-M DEB (TANK) 4.2 01:23:47 10° WNW 01:28:04 21° NNW 01:28:11 21° N
ERBS 4.3 01:30:03 10° W 01:32:31 24° NW 01:32:31 24° NW
Cosmos 724 4.2 01:27:11 10° NNW 01:32:47 58° NE 01:32:47 58° NE
CSL-04 Rocket 4.1 01:30:00 10° S 01:35:18 61° WSW 01:40:35 10° NNW
Tsikada Rocket 4.0 01:31:56 10° S 01:38:17 85° W 01:44:44 10° N
Cosmos 1980 Rocket 2.1 01:37:27 10° SSW 01:43:06 86° WNW 01:44:01 65° NNE
Cosmos 2227 Rocket 4.0 01:44:23 10° NW 01:49:15 30° WSW 01:54:06 10° SSW
Cosmos 2297 Rocket 4.1 01:44:44 10° NW 01:49:26 28° WSW 01:54:08 10° SSW
USA 215 3.6 01:49:53 48° NNE 01:49:53 48° NNE 01:55:51 10° NW
Cosmos 2263 Rocket 4.3 02:08:50 10° NNW 02:09:45 15° N 02:09:45 15° N
Lacrosse 4 Rocket 4.3 02:21:22 10° WNW 02:22:47 12° NW 02:22:47 12° NW
Cosmos 2082 Rocket 4.1 09:57:46 26° ENE 09:57:46 26° ENE 10:00:47 10° NE
Cosmos 839 Rocket 4.5 10:26:45 60° SSE 10:27:41 66° ESE 10:34:04 10° NE
Cosmos 1980 Rocket 3.3 10:35:38 31° NNE 10:37:30 40° ENE 10:42:49 10° SE
Cosmos 1680 Rocket 4.3 10:50:11 35° NNE 10:52:01 50° ENE 10:57:10 10° SE
Cosmos 2369 3.9 10:59:10 58° SSW 10:59:10 58° SSW 11:03:51 10° SSE
Cosmos 967 Rocket 4.3 10:59:09 67° SW 11:00:04 83° WNW 11:06:31 10° NNE
Gbstr 26 Del rocket 4.0 11:07:28 36° NE 11:07:28 36° NE 11:09:45 10° NE
Cosmos 2360 4.1 11:08:45 46° NNW 11:10:32 89° ENE 11:16:16 10° SSE
SJ 16-02 1.9 11:07:57 12° S 11:11:55 55° ESE 11:16:13 10° NNE
CZ-4C R/B 4.5 11:13:24 11° NNW 11:13:24 11° NNW 11:14:33 10° N
Meteor 2-2 Rocket 4.2 11:07:25 10° N 11:13:05 82° E 11:18:43 10° S
Meteor 1-27 4.1 11:10:40 36° NNW 11:13:11 73° W 11:18:59 10° S
Cosmos 923 Rocket 3.8 11:16:00 66° WNW 11:16:35 74° WSW 11:21:47 10° S
STARLINK-48 3.8 11:17:16 62° ESE 11:17:16 62° ESE 11:20:59 10° NE
Cosmos 1697 Rocket 2.8 11:17:56 51° SW 11:17:56 51° SW 11:22:52 10° S
Cosmos 2278 3.6 11:16:56 55° WNW 11:18:00 68° WSW 11:23:39 10° S
Cosmos 1153 Rocket 4.5 11:12:27 10° S 11:18:34 81° E 11:24:43 10° N
Cosmos 2123 Rocket 4.1 11:19:42 48° WSW 11:19:42 48° WSW 11:25:14 10° SSW
Lacrosse 5 2.7 11:22:03 36° NNW 11:22:03 36° NNW 11:26:06 10° NNE
CZ-2C R/B 2.3 11:23:43 10° N 11:28:31 58° WNW 11:29:25 49° WSW
ASTEX 1 3.2 11:23:44 10° S 11:28:40 79° W 11:33:40 10° N
Cosmos 1605 Rocket 4.0 11:23:57 10° SSW 11:30:00 53° W 11:36:00 10° N
COSMOS 2455 4.1 11:24:32 10° NNW 11:30:05 37° NE 11:35:36 10° ESE
BREEZE-M DEB (TANK) 2.8 11:33:17 34° ENE 11:33:17 34° ENE 11:34:48 10° ESE
STARLINK-43 4.2 11:35:05 37° N 11:35:05 37° N 11:37:58 10° NE
MSX 4.3 11:29:30 10° N 11:34:27 37° WNW 11:34:27 37° WNW
Okean O Rocket 3.7 11:31:06 10° NE 11:34:54 29° E 11:38:40 10° SSE
Cosmos 1898 Rocket 3.3 11:30:20 10° SSW 11:35:32 74° WNW 11:40:50 10° NNE
CZ-4B R/B 4.1 11:34:05 10° N 11:38:30 57° WNW 11:42:52 10° SSW
In-Cosmos 22 Rocket 4.2 11:33:36 10° S 11:38:56 79° E 11:44:23 10° NNE
Cosmos 2082 Rocket 2.8 11:39:42 34° WNW 11:39:42 34° WNW 11:44:53 10° N
NOSS 3-3 (A) 3.8 11:38:45 21° SW 11:42:48 67° NW 11:49:18 10° NNE
NOSS 3-3 (C) 3.8 11:38:48 20° SW 11:42:55 67° NW 11:49:24 10° NNE
OAO 3 Rocket 3.9 11:43:35 28° SW 11:45:42 46° S 11:50:15 10° ESE
Helios 1A Rocket 4.4 11:42:57 10° NNE 11:46:49 39° E 11:50:37 10° SSE
Cosmos 1937 Rocket 3.3 11:42:24 10° SSW 11:47:32 80° WNW 11:52:43 10° NNE
